Weather History for Meriden, CT

Change the Weather History Date:

Monday, July 29, 2013

  Actual Average (KHVN) Record (KHVN)
Temperature  
Mean Temperature 74 °F -  
Max Temperature 84 °F 78 °F 93 °F (1987)
Min Temperature 62 °F 63 °F 56 °F (1984)
Cooling Degree Days 8    
Growing Degree Days 24 (Base 50)    
Moisture  
Dew Point 67 °F    
Average Humidity 83    
Maximum Humidity 100    
Minimum Humidity 46    
Precipitation  
Precipitation 0.00 in - - ()
Sea Level Pressure  
Sea Level Pressure 30.00 in    
Wind  
Wind Speed 1 mph (SSW)    
Max Wind Speed 9 mph    
Max Gust Speed -    
Visibility 8 miles    
Events Rain    
Averages and records for this station are not official NWS values.
T = Trace of Precipitation, MM = Missing Value Source: NWS Daily Summary

Daily Weather History Graph

Daily Weather History Graph

Search for Another Location

Airport:

Trip Planner

Search our weather history database for the weather conditions in past years. The results will help you decide how hot, cold, wet, or windy it might be!

Date:

Astronomy

Jul. 29, 2013 Rise Set
Actual Time 5:43 AM EDT 8:11 PM EDT
Civil Twilight 5:11 AM EDT 8:43 PM EDT
Nautical Twilight 4:32 AM EDT 9:22 PM EDT
Astronomical Twilight 3:48 AM EDT 10:05 PM EDT
Moon No Moon Rise 1:29 PM EDT (7/29)
Length of Visible Light 15h 31m
Length of Day
14h 28m
Waning Gibbous, 51% of the Moon is Illuminated
Jul 29
Waning Gibbous
Jul 29
Last Quarter
Aug 6
New
Aug 14
First Quarter
Aug 20
Full

Hourly Weather History & Observations

Time (EDT) Temp. Heat Index Dew Point Humidity Pressure Visibility Wind Dir Wind Speed Gust Speed Precip Events Conditions
12:36 AM 71.6 °F - 68.0 °F 88% 29.99 in 10.0 mi Calm Calm - N/A   Mostly Cloudy
12:53 AM 71.1 °F - 68.0 °F 90% 29.98 in 10.0 mi Calm Calm - 0.00 in Rain Light Rain
1:34 AM 71.6 °F - 68.0 °F 88% 29.98 in 9.0 mi Calm Calm - 0.00 in   Overcast
1:53 AM 71.1 °F - 69.1 °F 93% 29.97 in 10.0 mi Calm Calm - 0.00 in   Mostly Cloudy
2:09 AM 71.6 °F - 69.8 °F 94% 29.98 in 10.0 mi Calm Calm - 0.00 in Rain Light Rain
2:26 AM 71.6 °F - 69.8 °F 94% 29.99 in 9.0 mi Calm Calm - 0.00 in   Overcast
2:45 AM 71.6 °F - 69.8 °F 94% 29.99 in 8.0 mi Calm Calm - 0.00 in   Mostly Cloudy
2:51 AM 69.8 °F - 68.0 °F 94% 29.99 in 8.0 mi Calm Calm - 0.00 in   Mostly Cloudy
2:53 AM 71.1 °F - 68.0 °F 90% 29.99 in 8.0 mi Calm Calm - 0.00 in   Mostly Cloudy
3:21 AM 71.6 °F - 69.8 °F 94% 29.98 in 7.0 mi Calm Calm - N/A   Overcast
3:33 AM 69.8 °F - 68.0 °F 94% 29.97 in 5.0 mi Calm Calm - N/A   Scattered Clouds
3:53 AM 69.1 °F - 66.9 °F 93% 29.97 in 4.0 mi Calm Calm - N/A   Partly Cloudy
4:05 AM 69.8 °F - 68.0 °F 94% 29.98 in 4.0 mi Calm Calm - N/A   Mostly Cloudy
4:47 AM 69.8 °F - 68.0 °F 94% 30.00 in 7.0 mi Calm Calm - N/A   Mostly Cloudy
4:53 AM 69.1 °F - 68.0 °F 96% 29.99 in 5.0 mi Calm Calm - N/A   Mostly Cloudy
5:42 AM 69.8 °F - 66.2 °F 88% 29.99 in 1.2 mi Calm Calm - N/A   Mostly Cloudy
5:53 AM 68.0 °F - 66.0 °F 93% 29.99 in 2.0 mi Calm Calm - N/A   Mostly Cloudy
6:01 AM 68.0 °F - 66.2 °F 94% 29.99 in 1.8 mi Calm Calm - N/A   Mostly Cloudy
6:13 AM 69.8 °F - 66.2 °F 88% 29.99 in 3.0 mi NNW 3.5 mph - N/A   Mostly Cloudy
6:45 AM 69.8 °F - 69.8 °F 100% 29.99 in 8.0 mi Calm Calm - N/A   Overcast
6:53 AM 71.1 °F - 69.1 °F 93% 29.99 in 8.0 mi Calm Calm - N/A   Overcast
7:11 AM 71.6 °F - 69.8 °F 94% 29.99 in 9.0 mi Calm Calm - N/A   Overcast
7:33 AM 71.6 °F - 69.8 °F 94% 30.00 in 8.0 mi South 3.5 mph - N/A   Overcast
7:53 AM 71.1 °F - 69.1 °F 93% 30.01 in 8.0 mi South 3.5 mph - N/A   Overcast
8:13 AM 71.6 °F - 68.0 °F 88% 30.02 in 10.0 mi SSE 3.5 mph - N/A   Overcast
8:44 AM 73.4 °F - 68.0 °F 83% 30.02 in 10.0 mi South 4.6 mph - N/A   Overcast
8:53 AM 73.0 °F - 68.0 °F 84% 30.02 in 10.0 mi SW 4.6 mph - N/A   Overcast
9:26 AM 75.2 °F - 69.8 °F 83% 30.03 in 10.0 mi Variable 3.5 mph - N/A   Mostly Cloudy
9:53 AM 75.9 °F - 68.0 °F 76% 30.02 in 10.0 mi Calm Calm - N/A   Mostly Cloudy
10:53 AM 78.1 °F - 66.9 °F 68% 30.02 in 10.0 mi Calm Calm - N/A   Scattered Clouds
11:53 AM 80.1 °F 82.7 °F 68.0 °F 67% 30.01 in 10.0 mi Calm Calm - N/A   Mostly Cloudy
12:53 PM 82.9 °F 85.0 °F 66.0 °F 56% 30.00 in 10.0 mi SSW 8.1 mph - N/A   Clear
1:53 PM 84.0 °F 85.8 °F 64.9 °F 53% 29.99 in 10.0 mi South 8.1 mph - N/A   Partly Cloudy
2:53 PM 84.9 °F 86.1 °F 64.0 °F 49% 29.99 in 10.0 mi SSW 9.2 mph - N/A   Partly Cloudy
3:53 PM 84.0 °F 84.4 °F 61.0 °F 46% 29.98 in 10.0 mi SW 6.9 mph - N/A   Partly Cloudy
4:53 PM 84.9 °F 85.9 °F 63.0 °F 48% 29.98 in 10.0 mi Variable 5.8 mph - N/A   Scattered Clouds
5:53 PM 75.9 °F - 66.9 °F 74% 29.98 in 10.0 mi SE 4.6 mph - 0.00 in   Overcast
6:53 PM 81.0 °F 82.5 °F 64.0 °F 56% 30.00 in 10.0 mi Calm Calm - 0.00 in   Scattered Clouds
7:53 PM 77.0 °F - 59.0 °F 54% 30.02 in 10.0 mi West 4.6 mph - N/A   Clear
8:53 PM 69.1 °F - 62.1 °F 78% 30.04 in 10.0 mi Calm Calm - N/A   Clear
9:53 PM 66.9 °F - 61.0 °F 81% 30.06 in 10.0 mi Calm Calm - N/A   Clear
10:53 PM 63.0 °F - 60.1 °F 90% 30.06 in 10.0 mi Calm Calm - N/A   Clear
11:53 PM 62.1 °F - 59.0 °F 90% 30.08 in 10.0 mi Calm Calm - N/A   Clear